weather.gov     
National Weather Service

Terminal Aerodrome Forecast
NWS Homepage
This page is being discontinued on March 12, 2014.
The same data is available at this site. Please update your bookmarks.
Thank you, and we apologize for the inconvenience.
Please send an email to SR-SRH.Webmaster@noaa.gov with any concerns.


Current Version
Previous Version:    01  02  03  04  05  06  07  08  09  10  11  12  13  14  15  16  17  18  19  20  21  22  23  24  25  26  27  28  29  30  
   31  
[Printable]
149
FTAK31 PAFA 201729
TAFASC
TAF
PASC 201729Z 2018/2118 08005KT P6SM OVC020
      TEMPO 2019/2021 SCT020 SCT080
     FM202100 05006KT P6SM SCT015 SCT080
     FM210500 05006KT P6SM BKN015
     FM210900 06006KT 1SM BR OVC005=


149
FTAK31 PAFA 201729
TAFASC
TAF
PASC 201729Z 2018/2118 08005KT P6SM OVC020
      TEMPO 2019/2021 SCT020 SCT080
     FM202100 05006KT P6SM SCT015 SCT080
     FM210500 05006KT P6SM BKN015
     FM210900 06006KT 1SM BR OVC005=




U.S. Dept. of Commerce
NOAA National Weather Service
1325 East West Highway
Silver Spring, MD 20910
E-mail: w-nws.webmaster@noaa.gov
Page last modified: May 16, 2007
NATIONAL WEATHER SERVICE: for Safety, for Work, for Fun - FOR LIFE